| time (UTC) | temp F | wind direction | speed knots | gust knots | rain 1hr in | rain 24hr in | rain mn in | humidity % | barometer mb |
| 20260502164036 | 58 | 0 | 0.0 | 2.6 | 0.00 | 0.00 | 0.00 | 49 | 1014.3 |
| 20260502163533 | 57 | 129 | 0.0 | 3.5 | 0.00 | 0.00 | 0.00 | 47 | 1014.3 |
| 20260502163049 | 57 | 0 | 0.0 | 3.5 | 0.00 | 0.00 | 0.00 | 48 | 1014.4 |
| 20260502162533 | 57 | 0 | 0.0 | 4.3 | 0.00 | 0.00 | 0.00 | 52 | 1014.4 |
| 20260502162033 | 56 | 114 | 0.0 | 4.3 | 0.00 | 0.00 | 0.00 | 49 | 1014.5 |
| 20260502161543 | 55 | 140 | 0.0 | 3.5 | 0.00 | 0.00 | 0.00 | 47 | 1014.6 |
| 20260502161033 | 55 | 0 | 0.0 | 2.6 | 0.00 | 0.00 | 0.00 | 51 | 1014.7 |
| 20260502160534 | 55 | 0 | 0.0 | 5.2 | 0.00 | 0.00 | 0.00 | 51 | 1014.8 |
| 20260502152037 | 54 | 0 | 0.0 | 2.6 | 0.00 | 0.00 | 0.00 | 57 | 1014.7 |
| 20260502151553 | 54 | 153 | 0.0 | 2.6 | 0.00 | 0.00 | 0.00 | 54 | 1014.9 |
| 20260502151036 | 53 | 0 | 0.0 | 2.6 | 0.00 | 0.00 | 0.00 | 57 | 1014.8 |
| 20260502150535 | 53 | 138 | 0.0 | 2.6 | 0.00 | 0.00 | 0.00 | 58 | 1014.7 |
| 20260502150103 | 53 | 134 | 0.0 | 2.6 | 0.00 | 0.00 | 0.00 | 55 | 1014.8 |
| 20260502130534 | 50 | 0 | 0.0 | 3.5 | 0.00 | 0.00 | 0.00 | 60 | 1014.7 |
| 20260502123532 | 50 | 105 | 0.0 | 0.9 | 0.00 | 0.00 | 0.00 | 62 | 1014.4 |
| 20260502123056 | 50 | 0 | 0.0 | 0.0 | 0.00 | 0.00 | 0.00 | 64 | 1014.3 |
| 20260502122535 | 49 | 0 | 0.0 | 0.9 | 0.00 | 0.00 | 0.00 | 62 | 1014.4 |
| 20260502122035 | 49 | 0 | 0.0 | 1.7 | 0.00 | 0.00 | 0.00 | 64 | 1014.4 |
| 20260502121550 | 49 | 0 | 0.0 | 1.7 | 0.00 | 0.00 | 0.00 | 63 | 1014.4 |
| 20260502121032 | 49 | 0 | 0.0 | 1.7 | 0.00 | 0.00 | 0.00 | 61 | 1014.2 |
| 20260502120533 | 49 | 0 | 0.0 | 0.0 | 0.00 | 0.00 | 0.00 | 63 | 1014.0 |
| 20260502115536 | 49 | 0 | 0.0 | 0.9 | 0.00 | 0.00 | 0.00 | 63 | 1014.0 |
| 20260502115033 | 49 | 0 | 0.0 | 1.7 | 0.00 | 0.00 | 0.00 | 62 | 1013.9 |
| 20260502114547 | 49 | 0 | 0.0 | 1.7 | 0.00 | 0.00 | 0.00 | 62 | 1013.8 |
| 20260502114033 | 49 | 0 | 0.0 | 1.7 | 0.00 | 0.00 | 0.00 | 62 | 1013.7 |
| 20260502113533 | 49 | 119 | 0.0 | 4.3 | 0.00 | 0.00 | 0.00 | 62 | 1013.7 |
| 20260502113051 | 49 | 144 | 0.0 | 6.1 | 0.00 | 0.00 | 0.00 | 60 | 1013.6 |
| 20260502112532 | 49 | 0 | 0.9 | 6.1 | 0.00 | 0.00 | 0.00 | 60 | 1013.6 |
| 20260502112033 | 49 | 151 | 0.9 | 4.3 | 0.00 | 0.00 | 0.00 | 58 | 1013.5 |
| 20260502111545 | 50 | 147 | 0.0 | 3.5 | 0.00 | 0.00 | 0.00 | 59 | 1013.5 |
| 20260502111033 | 50 | 118 | 0.0 | 3.5 | 0.00 | 0.00 | 0.00 | 59 | 1013.4 |
| 20260502110533 | 50 | 165 | 0.9 | 5.2 | 0.00 | 0.00 | 0.00 | 57 | 1013.4 |
| 20260502110041 | 50 | 95 | 0.9 | 5.2 | 0.00 | 0.00 | 0.00 | 58 | 1013.5 |
| 20260502105534 | 50 | 132 | 1.7 | 4.3 | 0.00 | 0.00 | 0.00 | 56 | 1013.6 |
| 20260502105033 | 50 | 0 | 0.9 | 3.5 | 0.00 | 0.00 | 0.00 | 56 | 1013.6 |
| 20260502104551 | 50 | 0 | 0.9 | 5.2 | 0.00 | 0.00 | 0.00 | 59 | 1013.5 |
| 20260502104033 | 50 | 0 | 0.0 | 5.2 | 0.00 | 0.00 | 0.00 | 57 | 1013.5 |
| 20260502103533 | 50 | 0 | 0.9 | 4.3 | 0.00 | 0.00 | 0.00 | 57 | 1013.7 |
| 20260502103052 | 50 | 126 | 0.9 | 3.5 | 0.00 | 0.00 | 0.00 | 57 | 1013.6 |
| 20260502102533 | 50 | 134 | 0.9 | 5.2 | 0.00 | 0.00 | 0.00 | 57 | 1013.6 |
| 20260502102034 | 50 | 138 | 0.0 | 5.2 | 0.00 | 0.00 | 0.00 | 58 | 1013.7 |
| 20260502101603 | 50 | 106 | 1.7 | 4.3 | 0.00 | 0.00 | 0.00 | 58 | 1013.8 |
| 20260502101033 | 50 | 134 | 0.9 | 2.6 | 0.00 | 0.00 | 0.00 | 57 | 1013.8 |
| 20260502100533 | 50 | 132 | 0.0 | 2.6 | 0.00 | 0.00 | 0.00 | 56 | 1013.7 |
| 20260502091033 | 51 | 0 | 0.9 | 3.5 | 0.00 | 0.00 | 0.00 | 59 | 1013.4 |
| 20260502090534 | 51 | 0 | 0.0 | 3.5 | 0.00 | 0.00 | 0.00 | 61 | 1013.5 |
| 20260502071033 | 52 | 0 | 0.0 | 2.6 | 0.00 | 0.00 | 0.00 | 66 | 1012.8 |
| 20260502070534 | 52 | 0 | 0.9 | 4.3 | 0.00 | 0.00 | 0.00 | 65 | 1012.7 |
| 20260502070050 | 52 | 0 | 0.9 | 4.3 | 0.00 | 0.00 | 0.00 | 64 | 1012.7 |
| 20260502065533 | 53 | 0 | 0.0 | 3.5 | 0.00 | 0.00 | 0.00 | 64 | 1012.7 |
| 20260502065033 | 53 | 0 | 0.0 | 4.3 | 0.00 | 0.00 | 0.00 | 65 | 1012.7 |
| 20260502064544 | 53 | 126 | 0.9 | 4.3 | 0.00 | 0.00 | 0.00 | 63 | 1012.8 |
| 20260502064033 | 53 | 0 | 0.0 | 3.5 | 0.00 | 0.00 | 0.00 | 64 | 1012.9 |
| 20260502063533 | 53 | 0 | 0.9 | 3.5 | 0.00 | 0.00 | 0.00 | 64 | 1012.9 |
| 20260502063053 | 53 | 0 | 0.0 | 3.5 | 0.00 | 0.00 | 0.00 | 64 | 1012.9 |
| 20260502062536 | 53 | 132 | 0.0 | 3.5 | 0.00 | 0.00 | 0.00 | 65 | 1012.9 |
| 20260502062036 | 53 | 0 | 0.0 | 3.5 | 0.00 | 0.00 | 0.00 | 64 | 1012.9 |
| 20260502061544 | 53 | 129 | 0.0 | 3.5 | 0.00 | 0.00 | 0.00 | 65 | 1013.0 |
| 20260502061033 | 53 | 0 | 0.9 | 3.5 | 0.00 | 0.00 | 0.00 | 64 | 1013.2 |
| 20260502060534 | 53 | 123 | 0.9 | 3.5 | 0.00 | 0.00 | 0.00 | 64 | 1013.3 |
| 20260502060051 | 54 | 0 | 0.0 | 1.7 | 0.00 | 0.00 | 0.00 | 65 | 1013.2 |
| 20260502055534 | 54 | 0 | 0.0 | 2.6 | 0.00 | 0.00 | 0.00 | 64 | 1013.2 |
| 20260502055033 | 54 | 0 | 0.0 | 2.6 | 0.00 | 0.00 | 0.00 | 63 | 1013.0 |
| 20260502054541 | 54 | 0 | 0.9 | 7.0 | 0.00 | 0.00 | 0.00 | 64 | 1013.0 |
| 20260502054033 | 54 | 234 | 0.0 | 7.0 | 0.00 | 0.00 | 0.00 | 65 | 1013.2 |
| 20260502053533 | 54 | 0 | 0.0 | 3.5 | 0.00 | 0.00 | 0.00 | 66 | 1013.1 |
| 20260502053044 | 54 | 0 | 0.0 | 1.7 | 0.00 | 0.00 | 0.00 | 65 | 1013.0 |
| 20260502052533 | 55 | 0 | 0.0 | 2.6 | 0.00 | 0.00 | 0.00 | 66 | 1013.1 |
| 20260502052034 | 55 | 0 | 0.0 | 2.6 | 0.00 | 0.00 | 0.00 | 64 | 1013.2 |
| 20260502051546 | 55 | 0 | 0.0 | 3.5 | 0.00 | 0.00 | 0.00 | 65 | 1013.2 |
| 20260502051033 | 55 | 0 | 0.9 | 3.5 | 0.00 | 0.00 | 0.00 | 65 | 1013.3 |
| 20260502050534 | 55 | 0 | 0.0 | 2.6 | 0.00 | 0.00 | 0.00 | 67 | 1013.3 |
| 20260502050044 | 55 | 149 | 0.0 | 2.6 | 0.00 | 0.00 | 0.00 | 66 | 1013.2 |
| 20260502045533 | 55 | 0 | 0.0 | 3.5 | 0.00 | 0.00 | 0.00 | 66 | 1013.2 |
| 20260502045034 | 55 | 0 | 0.0 | 3.5 | 0.00 | 0.00 | 0.00 | 67 | 1013.1 |
| 20260502044542 | 55 | 136 | 0.0 | 2.6 | 0.00 | 0.00 | 0.00 | 68 | 1013.1 |
| 20260502044033 | 55 | 0 | 0.0 | 1.7 | 0.00 | 0.00 | 0.00 | 67 | 1013.0 |
| 20260502043533 | 55 | 0 | 0.0 | 1.7 | 0.00 | 0.00 | 0.00 | 67 | 1013.0 |
| 20260502043043 | 55 | 134 | 0.0 | 1.7 | 0.00 | 0.00 | 0.00 | 68 | 1013.2 |
| 20260502042536 | 55 | 0 | 0.0 | 2.6 | 0.00 | 0.00 | 0.00 | 68 | 1013.1 |
| 20260502042033 | 55 | 0 | 0.0 | 2.6 | 0.00 | 0.00 | 0.00 | 69 | 1013.2 |
| 20260502041542 | 55 | 0 | 0.0 | 2.6 | 0.00 | 0.00 | 0.00 | 69 | 1013.0 |
| 20260502041032 | 54 | 0 | 0.0 | 2.6 | 0.00 | 0.00 | 0.00 | 69 | 1012.9 |
| 20260502040533 | 54 | 0 | 0.0 | 1.7 | 0.00 | 0.00 | 0.00 | 70 | 1013.1 |
| 20260502040047 | 54 | 140 | 0.0 | 1.7 | 0.00 | 0.00 | 0.00 | 72 | 1013.0 |
| 20260502035533 | 54 | 0 | 0.0 | 0.0 | 0.00 | 0.00 | 0.00 | 75 | 1013.0 |
| 20260502035035 | 54 | 0 | 0.0 | 0.9 | 0.00 | 0.00 | 0.00 | 78 | 1013.0 |
| 20260502034542 | 54 | 0 | 0.0 | 0.9 | 0.00 | 0.00 | 0.00 | 78 | 1013.2 |
| 20260502034034 | 54 | 0 | 0.0 | 0.9 | 0.00 | 0.00 | 0.00 | 77 | 1013.0 |
| 20260502033535 | 55 | 0 | 0.0 | 0.9 | 0.00 | 0.00 | 0.00 | 77 | 1013.1 |
| 20260502033048 | 55 | 0 | 0.0 | 0.0 | 0.00 | 0.00 | 0.00 | 76 | 1012.9 |
| 20260502032533 | 55 | 0 | 0.0 | 0.0 | 0.00 | 0.00 | 0.00 | 76 | 1012.9 |
| 20260502032033 | 55 | 0 | 0.0 | 0.0 | 0.00 | 0.00 | 0.00 | 74 | 1012.8 |
| 20260502031540 | 56 | 0 | 0.0 | 0.0 | 0.00 | 0.00 | 0.00 | 74 | 1012.8 |
| 20260502031033 | 56 | 0 | 0.0 | 0.0 | 0.00 | 0.00 | 0.00 | 75 | 1012.8 |
| 20260502030532 | 56 | 0 | 0.0 | 0.0 | 0.00 | 0.00 | 0.00 | 75 | 1012.8 |
| 20260502030051 | 57 | 0 | 0.0 | 0.0 | 0.00 | 0.00 | 0.00 | 74 | 1012.8 |
| 20260502025537 | 57 | 0 | 0.0 | 3.5 | 0.00 | 0.00 | 0.00 | 71 | 1012.7 |
| 20260502025033 | 57 | 0 | 0.0 | 3.5 | 0.00 | 0.00 | 0.00 | 71 | 1012.6 |
| 20260502024545 | 57 | 48 | 0.0 | 3.5 | 0.00 | 0.00 | 0.00 | 71 | 1012.6 |
| 20260502024035 | 57 | 0 | 0.0 | 3.5 | 0.00 | 0.00 | 0.00 | 71 | 1012.5 |
| 20260502023533 | 57 | 0 | 0.0 | 3.5 | 0.00 | 0.00 | 0.00 | 70 | 1012.5 |
| 20260502023100 | 57 | 0 | 0.9 | 3.5 | 0.00 | 0.00 | 0.00 | 69 | 1012.5 |
| 20260502022534 | 57 | 30 | 0.0 | 4.3 | 0.00 | 0.00 | 0.00 | 70 | 1012.3 |
| 20260502022033 | 57 | 35 | 0.0 | 4.3 | 0.00 | 0.00 | 0.00 | 69 | 1012.3 |
| 20260502021543 | 57 | 304 | 0.0 | 2.6 | 0.00 | 0.00 | 0.00 | 70 | 1012.1 |
| 20260502021033 | 57 | 0 | 0.0 | 2.6 | 0.00 | 0.00 | 0.00 | 70 | 1012.0 |
| 20260502020533 | 57 | 228 | 0.0 | 2.6 | 0.00 | 0.00 | 0.00 | 69 | 1011.9 |
| 20260502020042 | 57 | 0 | 0.0 | 2.6 | 0.00 | 0.00 | 0.00 | 69 | 1012.0 |
| 20260502015533 | 57 | 0 | 0.0 | 2.6 | 0.00 | 0.00 | 0.00 | 68 | 1012.0 |
| 20260502015033 | 57 | 0 | 0.0 | 2.6 | 0.00 | 0.00 | 0.00 | 69 | 1011.9 |
| 20260502014544 | 57 | 269 | 0.0 | 0.9 | 0.00 | 0.00 | 0.00 | 69 | 1012.0 |
| 20260502014034 | 58 | 0 | 0.0 | 0.0 | 0.00 | 0.00 | 0.00 | 68 | 1012.1 |
| 20260502013534 | 58 | 0 | 0.0 | 0.0 | 0.00 | 0.00 | 0.00 | 67 | 1012.0 |
| 20260502013043 | 58 | 0 | 0.0 | 0.0 | 0.00 | 0.00 | 0.00 | 66 | 1011.9 |
| 20260502012541 | 58 | 0 | 0.0 | 0.0 | 0.00 | 0.00 | 0.00 | 65 | 1011.7 |
| 20260502012033 | 59 | 0 | 0.0 | 5.2 | 0.00 | 0.00 | 0.00 | 65 | 1011.8 |
| 20260502011543 | 59 | 0 | 0.0 | 5.2 | 0.00 | 0.00 | 0.00 | 65 | 1011.8 |
| 20260502011034 | 59 | 296 | 0.0 | 1.7 | 0.00 | 0.00 | 0.00 | 67 | 1011.7 |
| 20260502010536 | 59 | 0 | 0.0 | 1.7 | 0.00 | 0.00 | 0.00 | 63 | 1011.7 |
| 20260502010039 | 59 | 0 | 0.0 | 0.0 | 0.00 | 0.00 | 0.00 | 66 | 1011.6 |
| 20260502005533 | 59 | 0 | 0.0 | 0.0 | 0.00 | 0.00 | 0.00 | 64 | 1011.6 |
| 20260502005033 | 60 | 0 | 0.0 | 0.0 | 0.00 | 0.00 | 0.00 | 65 | 1011.5 |
| 20260502004600 | 60 | 0 | 0.0 | 3.5 | 0.00 | 0.00 | 0.00 | 64 | 1011.5 |
| 20260502004034 | 60 | 0 | 0.0 | 3.5 | 0.00 | 0.00 | 0.00 | 61 | 1011.4 |
| 20260502003532 | 60 | 0 | 0.0 | 3.5 | 0.00 | 0.00 | 0.00 | 63 | 1011.3 |
| 20260502003044 | 60 | 339 | 0.9 | 3.5 | 0.00 | 0.00 | 0.00 | 63 | 1011.2 |
| 20260502002532 | 60 | 45 | 0.0 | 1.7 | 0.00 | 0.00 | 0.00 | 63 | 1011.2 |
| 20260502002033 | 60 | 0 | 0.0 | 1.7 | 0.00 | 0.00 | 0.00 | 63 | 1011.1 |
| 20260502001541 | 60 | 308 | 0.0 | 1.7 | 0.00 | 0.00 | 0.00 | 63 | 1011.2 |
| 20260502001034 | 61 | 0 | 0.0 | 2.6 | 0.00 | 0.00 | 0.00 | 61 | 1011.1 |
| 20260502000533 | 61 | 0 | 0.0 | 2.6 | 0.00 | 0.00 | 0.00 | 60 | 1010.9 |
| 20260502000040 | 61 | 266 | 0.0 | 2.6 | 0.00 | 0.00 | 0.00 | 60 | 1010.9 |
| 20260501235536 | 61 | 0 | 0.0 | 2.6 | 0.00 | 0.00 | 0.00 | 58 | 1010.6 |
| 20260501235033 | 61 | 0 | 0.0 | 5.2 | 0.00 | 0.00 | 0.00 | 57 | 1010.6 |
| 20260501234546 | 62 | 0 | 0.0 | 5.2 | 0.00 | 0.00 | 0.00 | 57 | 1010.6 |
| 20260501234035 | 62 | 284 | 0.0 | 1.7 | 0.00 | 0.00 | 0.00 | 56 | 1010.5 |
| 20260501233533 | 62 | 0 | 0.0 | 1.7 | 0.00 | 0.00 | 0.00 | 56 | 1010.6 |
| 20260501233043 | 62 | 0 | 0.0 | 2.6 | 0.00 | 0.00 | 0.00 | 58 | 1010.5 |
| 20260501232532 | 62 | 0 | 0.9 | 3.5 | 0.00 | 0.00 | 0.00 | 54 | 1010.7 |
| 20260501232032 | 63 | 355 | 0.0 | 6.1 | 0.00 | 0.00 | 0.00 | 54 | 1010.6 |
| 20260501231541 | 63 | 327 | 0.9 | 6.1 | 0.00 | 0.00 | 0.00 | 54 | 1010.6 |
| 20260501231033 | 63 | 19 | 0.9 | 7.0 | 0.00 | 0.00 | 0.00 | 53 | 1010.6 |
| 20260501230538 | 63 | 111 | 1.7 | 7.0 | 0.00 | 0.00 | 0.00 | 53 | 1010.7 |
| 20260501230045 | 64 | 5 | 2.6 | 7.0 | 0.00 | 0.00 | 0.00 | 52 | 1010.4 |
| 20260501225534 | 64 | 333 | 2.6 | 7.0 | 0.00 | 0.00 | 0.00 | 52 | 1010.5 |
| 20260501225035 | 64 | 0 | 0.9 | 7.0 | 0.00 | 0.00 | 0.00 | 51 | 1010.4 |
| 20260501224545 | 64 | 19 | 1.7 | 8.7 | 0.00 | 0.00 | 0.00 | 50 | 1010.3 |
| 20260501224033 | 64 | 259 | 2.6 | 8.7 | 0.00 | 0.00 | 0.00 | 49 | 1010.4 |
| 20260501223533 | 64 | 317 | 3.5 | 8.7 | 0.00 | 0.00 | 0.00 | 49 | 1010.4 |
| 20260501223105 | 65 | 19 | 2.6 | 7.0 | 0.00 | 0.00 | 0.00 | 49 | 1010.4 |
| 20260501222533 | 65 | 37 | 1.7 | 6.1 | 0.00 | 0.00 | 0.00 | 49 | 1010.5 |
| 20260501222034 | 65 | 302 | 1.7 | 4.3 | 0.00 | 0.00 | 0.00 | 50 | 1010.6 |
| 20260501221543 | 64 | 292 | 1.7 | 10.4 | 0.00 | 0.00 | 0.00 | 49 | 1010.6 |
| 20260501221033 | 65 | 0 | 0.9 | 10.4 | 0.00 | 0.00 | 0.00 | 49 | 1010.6 |
| 20260501220533 | 65 | 23 | 2.6 | 10.4 | 0.00 | 0.00 | 0.00 | 48 | 1010.8 |
| 20260501220052 | 65 | 348 | 1.7 | 7.8 | 0.00 | 0.00 | 0.00 | 47 | 1010.6 |
| 20260501215534 | 65 | 164 | 1.7 | 6.1 | 0.00 | 0.00 | 0.00 | 50 | 1010.6 |
| 20260501215034 | 65 | 53 | 2.6 | 6.1 | 0.00 | 0.00 | 0.00 | 48 | 1010.7 |
| 20260501214551 | 65 | 315 | 1.7 | 8.7 | 0.00 | 0.00 | 0.00 | 48 | 1010.9 |
| 20260501214033 | 65 | 306 | 2.6 | 8.7 | 0.00 | 0.00 | 0.00 | 48 | 1010.8 |
| 20260501213536 | 65 | 83 | 2.6 | 7.8 | 0.00 | 0.00 | 0.00 | 46 | 1010.9 |
| 20260501213106 | 65 | 351 | 0.9 | 7.8 | 0.00 | 0.00 | 0.00 | 47 | 1010.9 |
| 20260501212535 | 65 | 329 | 0.9 | 7.8 | 0.00 | 0.00 | 0.00 | 48 | 1011.0 |
| 20260501212033 | 65 | 308 | 1.7 | 7.8 | 0.00 | 0.00 | 0.00 | 47 | 1011.0 |
| 20260501211547 | 65 | 5 | 2.6 | 7.0 | 0.00 | 0.00 | 0.00 | 46 | 1011.0 |
| 20260501211033 | 65 | 360 | 2.6 | 7.0 | 0.00 | 0.00 | 0.00 | 47 | 1011.1 |
| 20260501210533 | 65 | 260 | 0.9 | 7.0 | 0.00 | 0.00 | 0.00 | 46 | 1011.2 |
| 20260501210046 | 65 | 298 | 1.7 | 7.0 | 0.00 | 0.00 | 0.00 | 46 | 1011.3 |
| 20260501205537 | 65 | 328 | 0.9 | 8.7 | 0.00 | 0.00 | 0.00 | 48 | 1011.3 |
| 20260501205032 | 65 | 290 | 0.9 | 9.6 | 0.00 | 0.00 | 0.00 | 47 | 1011.5 |
| 20260501204550 | 65 | 239 | 2.6 | 9.6 | 0.00 | 0.00 | 0.00 | 46 | 1011.4 |
| 20260501204033 | 65 | 325 | 1.7 | 8.7 | 0.00 | 0.00 | 0.00 | 47 | 1011.5 |
| 20260501203532 | 66 | 279 | 1.7 | 10.4 | 0.00 | 0.00 | 0.00 | 45 | 1011.6 |
| 20260501203101 | 66 | 332 | 1.7 | 10.4 | 0.00 | 0.00 | 0.00 | 44 | 1011.7 |
| 20260501202534 | 66 | 304 | 2.6 | 8.7 | 0.00 | 0.00 | 0.00 | 45 | 1011.8 |
| 20260501202033 | 66 | 31 | 0.9 | 6.1 | 0.00 | 0.00 | 0.00 | 45 | 1011.7 |
| 20260501201551 | 66 | 9 | 1.7 | 7.0 | 0.00 | 0.00 | 0.00 | 46 | 1011.9 |
| 20260501201033 | 66 | 311 | 0.9 | 7.0 | 0.00 | 0.00 | 0.00 | 45 | 1012.0 |
| 20260501200537 | 66 | 323 | 0.9 | 7.0 | 0.00 | 0.00 | 0.00 | 46 | 1012.1 |
| 20260501200045 | 66 | 320 | 1.7 | 7.0 | 0.00 | 0.00 | 0.00 | 44 | 1012.1 |
| 20260501195533 | 66 | 322 | 0.9 | 7.0 | 0.00 | 0.00 | 0.00 | 44 | 1012.2 |
| 20260501195033 | 66 | 338 | 1.7 | 7.0 | 0.00 | 0.00 | 0.00 | 42 | 1012.3 |
| 20260501194550 | 66 | 85 | 1.7 | 7.8 | 0.00 | 0.00 | 0.00 | 41 | 1012.3 |
| 20260501194033 | 66 | 270 | 1.7 | 7.8 | 0.00 | 0.00 | 0.00 | 41 | 1012.4 |
| 20260501193533 | 66 | 124 | 0.9 | 5.2 | 0.00 | 0.00 | 0.00 | 46 | 1012.6 |
| 20260501193041 | 66 | 77 | 0.9 | 2.6 | 0.00 | 0.00 | 0.00 | 46 | 1012.6 |
| 20260501192532 | 65 | 0 | 0.9 | 7.8 | 0.00 | 0.00 | 0.00 | 48 | 1012.7 |
| 20260501192032 | 64 | 148 | 0.9 | 8.7 | 0.00 | 0.00 | 0.00 | 47 | 1012.8 |
| 20260501191550 | 64 | 124 | 1.7 | 8.7 | 0.00 | 0.00 | 0.00 | 43 | 1013.0 |
| 20260501191033 | 64 | 109 | 1.7 | 7.8 | 0.00 | 0.00 | 0.00 | 44 | 1012.8 |
| 20260501190533 | 64 | 130 | 3.5 | 7.8 | 0.00 | 0.00 | 0.00 | 44 | 1012.9 |
| 20260501190047 | 64 | 5 | 2.6 | 7.8 | 0.00 | 0.00 | 0.00 | 46 | 1012.9 |
| 20260501185533 | 64 | 360 | 2.6 | 10.4 | 0.00 | 0.00 | 0.00 | 46 | 1013.0 |
| 20260501185034 | 64 | 61 | 3.5 | 10.4 | 0.00 | 0.00 | 0.00 | 43 | 1013.1 |
| 20260501184600 | 65 | 284 | 1.7 | 7.0 | 0.00 | 0.00 | 0.00 | 44 | 1013.2 |
| 20260501184033 | 64 | 152 | 0.9 | 7.8 | 0.00 | 0.00 | 0.00 | 50 | 1013.3 |
| 20260501183533 | 64 | 22 | 1.7 | 7.8 | 0.00 | 0.00 | 0.00 | 46 | 1013.4 |
| 20260501183044 | 64 | 0 | 0.9 | 7.8 | 0.00 | 0.00 | 0.00 | 46 | 1013.5 |
| 20260501182532 | 63 | 40 | 2.6 | 7.8 | 0.00 | 0.00 | 0.00 | 45 | 1013.6 |
| 20260501182033 | 64 | 65 | 1.7 | 7.8 | 0.00 | 0.00 | 0.00 | 46 | 1013.6 |
| 20260501181632 | 63 | 255 | 1.7 | 7.8 | 0.00 | 0.00 | 0.00 | 46 | 1013.8 |
| 20260501181035 | 64 | 350 | 0.9 | 7.8 | 0.00 | 0.00 | 0.00 | 46 | 1013.8 |
| 20260501180532 | 63 | 323 | 2.6 | 7.8 | 0.00 | 0.00 | 0.00 | 47 | 1014.0 |
| 20260501180040 | 63 | 132 | 2.6 | 7.0 | 0.00 | 0.00 | 0.00 | 48 | 1014.1 |
| 20260501175533 | 63 | 315 | 1.7 | 7.0 | 0.00 | 0.00 | 0.00 | 45 | 1014.0 |
| 20260501175033 | 63 | 322 | 0.9 | 7.0 | 0.00 | 0.00 | 0.00 | 48 | 1014.1 |
| 20260501174551 | 62 | 136 | 0.9 | 7.0 | 0.00 | 0.00 | 0.00 | 52 | 1014.0 |
| 20260501174033 | 62 | 129 | 1.7 | 7.8 | 0.00 | 0.00 | 0.00 | 50 | 1014.1 |
| 20260501173533 | 62 | 276 | 2.6 | 7.8 | 0.00 | 0.00 | 0.00 | 47 | 1014.4 |
| 20260501173056 | 63 | 64 | 0.9 | 11.3 | 0.00 | 0.00 | 0.00 | 48 | 1014.4 |